星链-1414 (STARLINK-1414 )

导读 | 星芒AI

STARLINK-1414 是 SpaceX Starlink 项目中的一颗低轨通信卫星,属于第 14 批部署的星链卫星群。该卫星于 2021 年发射,运行在约 550 公里的轨道高度,旨在为全球用户提供高速互联网服务。作为星链网络的一部分,STARLINK-1414 采用先进推进系统和激光通信技术,提升网络稳定性和数据传输效率。该卫星支持 Ku 和 Ka 频段通信,助力偏远地区实现宽带接入,推动全球互联网覆盖的普及与优化。

基本信息
目录编号:
45690
目录名称:
STARLINK-1414
国际标识:
2020-035AK
轨道中心:
EARTH
卫星名称:
星链-1414
卫星全名:
星链-1414 (STARLINK-1414 )
卫星状态:
已陨落 最后检测时间 2025-04-08
发射日期:
2020-06-04 UTC
国别 :
美国 (US)
星等 :
--
轨道信息
数据来源 国际轨道数据
星历时间: 2025-04-08T08:21:51+0800
轨道信息已过期204天
半长轴: 6531.409km
偏心率: 0.0008727
轨道倾角: 53.024°
近地点辐角 257.074°
升交点赤经 70.022°
平近点角 223.156°
近地点: 147.574km
远地点: 158.974km
周期: 87.553分钟
每日圈数: 16.447219
详细信息
固有亮度:
5
最大亮度:
2.5
卫星平台:
Starlink V1.0
覆盖范围:
全球
运营商:
太空探索技术公司
运营商所在国:
美国
制造商(研发单位):
太空探索技术公司
制造商所在国:
美国
使用方式:
暂无
卫星简介
星链(Starlink)计划是由太空探索技术公司(SpaceX)提出的一个巨型低轨卫星互联网星座项目,计划在2019年至2024年间在太空搭建由约1.2万颗卫星组成的“星链”网络,其中1584颗将部署在地球上空550千米处的近地轨道,并从2020年开始工作。该卫星仍在工作。